FW5380 Weather Reports


Display with metric or nautical units.
time (UTC)temp
F
wind
direction
speed
MPH
gust
MPH
rain 1hr
in
rain 24hr
in
rain mn
in
humidity
%
barometer
mb
20260506091531 46 225 0.0 0.0 0.00 0.00 0.00 92 1018.2
20260506084529 47 200 0.0 4.0 0.00 0.00 0.00 92 1018.0
20260506083030 48 187 0.0 3.0 0.00 0.00 0.00 91 1017.9
20260506081607 48 164 0.0 3.0 0.00 0.00 0.00 91 1017.9
20260506073032 49 174 3.0 4.0 0.00 0.00 0.00 90 1017.5
20260506071529 49 179 2.0 4.0 0.00 0.00 0.00 90 1017.4
20260506061532 50 124 1.0 4.0 0.00 0.00 0.00 88 1017.1
20260506044530 54 143 0.0 2.0 0.00 0.00 0.00 82 1016.5
20260506043031 55 180 1.0 3.0 0.00 0.00 0.00 81 1016.3
20260506040033 57 180 1.0 4.0 0.00 0.00 0.00 76 1015.8
20260506034529 59 183 1.0 3.0 0.00 0.00 0.00 74 1015.6
20260506033030 61 189 1.0 3.0 0.00 0.00 0.00 70 1015.4
20260506031530 64 45 0.0 3.0 0.00 0.00 0.00 65 1015.2
20260506030032 67 45 0.0 4.0 0.00 0.00 0.00 60 1015.0
20260506024530 69 53 2.0 4.0 0.00 0.00 0.00 58 1014.8
20260506023103 70 64 2.0 4.0 0.00 0.00 0.00 56 1014.8
20260506021531 71 359 2.0 6.0 0.00 0.00 0.00 55 1014.7
20260506020031 72 339 3.0 6.0 0.00 0.00 0.00 54 1014.6
20260506014531 73 9 2.0 7.0 0.00 0.00 0.00 53 1014.6
20260506013028 73 357 2.0 7.0 0.00 0.00 0.00 52 1014.5
20260506010103 75 336 4.0 10.0 0.00 0.00 0.00 50 1014.4
20260506004529 76 332 5.0 9.0 0.00 0.00 0.00 48 1014.4
20260506001607 78 339 5.0 11.0 0.00 0.00 0.00 47 1014.4
20260506000030 78 347 5.0 10.0 0.00 0.00 0.00 46 1014.4
20260505233031 78 335 5.0 10.0 0.00 0.00 0.00 46 1014.6
20260505231532 77 335 6.0 11.0 0.00 0.00 0.00 47 1014.7
20260505224531 77 333 6.0 13.0 0.00 0.00 0.00 47 1014.9
20260505223029 77 329 5.0 9.0 0.00 0.00 0.00 47 1014.9
20260505220031 77 311 5.0 11.0 0.00 0.00 0.00 46 1015.2
20260505214532 78 318 5.0 9.0 0.00 0.00 0.00 46 1015.2
20260505213029 77 327 4.0 7.0 0.00 0.00 0.00 48 1015.4
20260505211655 76 343 3.0 9.0 0.00 0.00 0.00 49 1015.5
20260505210106 75 324 3.0 7.0 0.00 0.00 0.00 49 1015.8
20260505204531 75 331 4.0 10.0 0.00 0.00 0.00 50 1015.9
20260505203033 74 314 4.0 9.0 0.00 0.00 0.00 51 1016.0
20260505201530 73 313 4.0 8.0 0.00 0.00 0.00 52 1016.0
20260505200031 73 331 4.0 9.0 0.00 0.00 0.00 53 1016.1
20260505194605 72 341 4.0 9.0 0.00 0.00 0.00 53 1016.2
20260505193030 72 334 3.0 8.0 0.00 0.00 0.00 53 1016.2
20260505191531 73 341 3.0 7.0 0.00 0.00 0.00 52 1016.3
20260505184529 72 334 3.0 9.0 0.00 0.00 0.00 55 1016.5
20260505183032 70 335 4.0 10.0 0.00 0.00 0.00 57 1016.5
20260505180146 70 318 4.0 9.0 0.00 0.00 0.00 59 1016.5
20260505173103 68 25 3.0 8.0 0.00 0.00 0.00 62 1016.5
20260505171646 68 29 2.0 6.0 0.00 0.00 0.00 62 1016.5
20260505170033 67 332 2.0 6.0 0.00 0.00 0.00 63 1016.4
20260505164529 66 11 1.0 6.0 0.00 0.00 0.00 64 1016.5
20260505163031 66 55 2.0 6.0 0.00 0.00 0.00 64 1016.5
20260505161530 66 49 1.0 5.0 0.00 0.00 0.00 66 1016.6
20260505151532 58 90 1.0 3.0 0.00 0.00 0.00 91 1016.2
20260505124530 47 157 0.0 2.0 0.00 0.00 0.00 92 1014.6
20260505123106 47 157 0.0 1.0 0.00 0.00 0.00 92 1014.6
20260505121529 47 157 0.0 1.0 0.00 0.00 0.00 92 1014.5
20260505120030 47 157 0.0 2.0 0.00 0.00 0.00 92 1014.5
20260505114528 48 157 0.0 2.0 0.00 0.00 0.00 91 1014.4
20260505113029 48 170 0.0 2.0 0.00 0.00 0.00 91 1014.3
20260505111531 48 180 0.0 2.0 0.00 0.00 0.00 91 1014.2
20260505100031 50 179 1.0 4.0 0.00 0.00 0.00 89 1013.8
20260505094530 51 180 1.0 3.0 0.00 0.00 0.00 89 1013.7
20260505093033 51 180 1.0 4.0 0.00 0.00 0.00 88 1013.7